Weather in Sokal

Ukraine / Lviv District     50°28′47″N   24°17′05″E
temp.,
°C
wind,
m/s
gust,
m/s
humid.,
%
clouds,
%
prec.,
mm/h
press.,
hPa
HPBL,
m
22 may, sun
sun2200:00+12wnw614715 0.0 1012788
03:00+11w714795 0.0 1010694
06:00+10wnw7148479 0.0 1010823
09:00+10wnw71283100 0.3 10101364
12:00+12wnw8117296 0.3 10101440
15:00+12nw8127191 0.6 10111246
18:00+12nw61173100 0.0 10101228
21:00+10nnw387964 0.1 1011516
23 may, mon
mon2300:00+8wnw378888 0.0 1011194
03:00+9nw4989100 0.2 1011523
06:00+8wnw3693100 0.1 1012390
09:00+9nw3592100 0.1 1013447
12:00+11nw338299 0.1 1013553
15:00+15nw336893 0.7 10131043
18:00+16n126282 0.6 1012964
21:00+12wnw227928 1.2 101315
24 may, tue
tue2400:00+8ene33871 0.0 101437
03:00+7se34930 0.0 101454
06:00+7ese34943 0.0 101475
09:00+12se46705 0.0 1014373
12:00+17se5656100 0.0 10131114
15:00+19se5651100 0.0 10121722
18:00+19sse3661100 0.0 10121350
21:00+14ese337797 0.0 101333
25 may, wed
wed2500:00+12ese478497 0.0 1014101
03:00+11se488371 0.0 1014142
06:00+10se3785100 0.0 1014125
09:00+15sse4672100 0.0 1014331
12:00+19sse3464100 0.0 1014698
15:00+22ssw235599 0.0 10131291
18:00+20s2268100 0.1 101218
21:00+18wsw368562 0.6 101194
26 may, thu
thu2600:00+14wnw71294100 1.9 1014611
03:00+11wnw6129566 1.9 1016527
06:00+10nw489277 0.0 1017415
09:00+14w59800 0.0 1017599
12:00+19wnw79536 0.1 10171874
15:00+18w61060100 0.1 1017802
18:00+18wnw5106568 0.3 10171086
21:00+14wnw37800 0.4 1017122